RH
5 6 6 6 7 8 7 5 4 4 4 4 4 4 3 3 4 5 6 7 8 8 7 7 7 8 9 13 18 19 22 24 34 38 44 43 32 31 15 10 7 13 12 8 6 8 9 6 5
3 3 3 4 5 5 6 7 7 6 6 6 5 4 4 4 4 3 3 3 4 5 7 8 8 8 8 10 14 16 19 25 33 39 37 39 48 42 25 14 9 8 11 11 7 8 7 5 8
6 8 6 4 4 3 3 3 5 7 7 7 7 7 7 7 6 5 5 4 3 3 5 11 7 7 7 7 7 10 15 22 30 28 32 32 36 47 42 22 14 8 9 12 8 7 6 6 10
10 8 7 8 8 7 6 3 3 3 3 3 3 4 4 6 7 7 10 8 8 7 7 14 8 17 9 4 5 6 7 15 22 22 24 27 30 29 40 43 22 13 8 10 10 7 6 7 11
16 16 15 14 13 13 12 10 8 5 4 3 3 3 3 3 3 4 5 17 21 24 26 18 25 19 26 14 6 6 5 7 9 16 13 16 23 26 27 39 43 23 12 7 11 8 6 6 10
19 19 20 18 16 13 12 13 14 12 10 7 6 5 5 4 4 4 4 5 14 29 33 34 32 42 37 38 31 17 14 14 21 20 15 13 14 22 25 25 41 42 23 12 11 12 7 6 10
18 20 22 23 23 18 18 16 16 16 13 14 12 10 9 8 6 5 5 5 4 6 21 37 41 34 47 51 46 47 44 43 37 34 22 15 17 15 25 28 25 42 46 31 21 20 12 7 8
23 25 26 25 24 23 23 21 19 20 19 18 17 16 15 13 11 10 9 5 4 5 6 12 29 36 37 47 57 55 51 61 65 52 48 40 21 23 20 23 25 29 50 56 37 22 23 10 9
24 27 26 24 24 24 23 24 25 24 20 19 20 19 19 18 18 15 12 11 9 5 4 5 6 19 31 30 43 57 67 59 51 74 76 57 36 31 40 28 23 27 41 61 60 24 24 11 9
27 26 24 25 26 27 26 26 24 24 24 24 24 24 22 22 24 24 22 17 13 12 8 5 5 5 7 18 31 41 56 84 74 42 43 81 78 38 32 39 32 37 34 50 65 50 18 15 10
30 29 29 30 31 32 29 31 31 30 29 28 26 26 26 27 28 28 29 30 27 20 13 11 9 6 5 6 10 20 39 60 93 90 55 44 80 96 91 62 47 41 55 45 47 64 36 14 12
33 36 36 35 35 38 38 37 41 41 40 38 36 35 33 31 31 33 31 31 35 35 30 20 13 11 9 6 6 6 13 28 54 88 95 75 68 86 100 97 87 57 46 39 42 46 63 30 13
33 33 33 32 31 36 37 37 35 36 39 41 42 43 43 41 38 36 34 34 34 35 40 40 31 16 12 11 10 8 7 12 22 45 72 94 64 96 97 98 96 84 54 46 38 40 63 63 30
25 26 25 26 29 30 32 35 35 33 36 36 38 40 40 41 42 42 41 39 37 35 33 38 44 38 24 15 12 11 9 7 14 22 36 52 91 92 94 86 89 94 89 54 47 39 60 70 64
21 21 22 21 23 24 27 25 26 26 28 28 30 33 36 37 37 37 37 39 41 41 40 36 37 42 46 37 22 13 12 10 9 18 28 37 55 94 98 85 71 93 67 61 31 38 38 64 67
20 18 20 23 22 22 22 22 24 24 24 25 27 28 28 27 25 24 24 26 32 37 40 42 40 38 40 46 48 34 17 12 10 14 17 32 38 49 97 93 71 86 93 75 54 36 31 41 57
18 20 24 25 27 27 26 25 24 23 22 21 20 19 17 16 15 14 13 13 14 17 25 34 40 42 41 40 44 47 40 20 12 11 12 18 36 47 44 80 98 96 95 100 90 82 24 29 58
18 23 23 25 21 23 20 18 16 14 13 11 10 9 8 8 8 7 8 8 8 7 9 12 18 30 38 41 42 44 45 42 21 13 11 10 23 41 33 50 64 94 88 92 90 96 92 56 66
17 17 18 20 20 19 18 17 15 13 11 10 9 8 7 7 7 6 6 6 6 5 5 6 6 8 13 22 35 42 43 45 44 24 13 12 14 27 32 36 72 79 89 84 84 97 91 87 70
11 13 14 16 17 18 16 13 10 8 7 6 6 5 5 5 5 5 5 5 5 5 5 5 4 4 5 7 11 22 38 43 46 45 30 15 12 18 28 45 56 68 89 85 93 96 94 92 84
13 15 16 17 17 15 11 10 9 7 6 5 4 4 4 4 4 4 4 4 3 4 4 4 4 4 4 4 4 6 13 30 42 46 47 35 20 13 15 35 57 91 77 91 81 83 93 96 93
17 16 17 16 13 11 10 7 6 5 5 4 4 4 4 4 4 4 4 4 4 3 3 3 3 4 4 4 4 3 4 8 20 37 46 48 36 23 14 17 32 65 68 84 89 73 78 83 87
16 16 15 13 11 8 6 5 5 5 5 5 5 6 6 7 8 8 8 7 6 5 4 4 3 3 3 3 3 4 3 3 6 12 28 45 49 35 25 18 19 25 54 69 87 76 54 59 61
14 14 13 10 8 6 5 6 6 6 7 8 14 16 16 16 16 15 14 12 11 10 8 7 6 4 3 3 3 3 3 3 3 4 8 23 43 52 37 26 20 20 28 46 78 80 61 46 50
14 12 9 7 6 5 6 7 8 12 16 20 24 24 24 23 22 22 21 18 16 15 13 12 12 11 7 5 3 3 2 3 3 3 3 6 22 44 56 40 25 21 23 27 46 70 62 42 43
13 9 7 6 6 6 8 14 15 27 33 32 28 31 26 20 20 25 29 23 19 20 18 18 33 37 30 27 14 7 3 2 2 3 3 3 6 20 44 58 45 26 22 35 26 48 65 56 30
9 6 6 5 6 6 12 19 30 44 42 37 38 38 31 30 31 29 36 33 29 25 25 21 37 68 72 56 61 52 34 8 3 3 3 3 4 10 25 42 58 50 28 24 30 22 48 60 57
6 6 6 6 9 16 20 29 39 44 44 47 43 40 42 49 50 46 40 43 41 38 34 34 28 48 71 89 86 79 78 59 20 5 4 4 4 5 18 34 45 60 55 30 26 22 20 42 56
6 6 7 10 21 37 46 41 55 56 51 46 45 45 54 57 55 54 50 40 40 43 40 39 43 34 43 59 94 99 100 93 71 52 19 6 4 4 8 29 48 50 67 61 34 26 22 30 34
6 7 13 27 38 45 61 44 65 59 62 58 53 49 52 50 53 54 55 53 46 42 42 43 48 51 35 43 79 100 100 100 94 84 59 30 11 5 5 21 56 71 56 72 65 40 26 27 46
Wind_Speed
7 4 6 7 9 11 12 12 12 12 13 13 14 15 15 16 17 19 21 20 21 21 22 23 24 24 24 25 25 25 24 23 21 20 18 16 16 16 16 15 16 17 14 12 13 17 17 16 15
3 4 3 4 3 5 8 12 14 15 16 16 16 17 18 18 19 19 20 19 20 23 24 25 26 27 27 27 27 27 27 26 24 23 21 20 19 17 19 17 16 19 18 14 14 18 19 18 17
2 3 4 4 4 5 5 6 9 11 13 15 17 19 21 22 23 22 22 21 22 24 25 26 26 27 28 29 28 29 29 28 28 27 26 25 23 21 20 20 19 19 21 18 16 19 21 20 19
8 7 8 9 9 10 10 11 11 12 13 12 14 16 19 21 24 25 24 25 26 26 27 28 28 28 28 29 30 31 31 31 31 30 30 29 28 26 23 22 21 20 22 23 20 21 22 22 21
11 11 12 13 14 14 15 16 17 18 19 20 21 22 23 21 21 22 23 26 29 32 33 33 33 32 31 31 30 31 33 34 34 33 32 32 31 29 30 26 24 23 22 25 24 22 25 25 24
16 16 16 18 18 17 17 19 22 23 25 26 27 28 28 28 28 28 28 28 28 28 31 35 37 37 36 35 33 33 33 33 34 36 34 33 33 33 32 30 29 26 25 22 26 25 26 28 27
20 20 21 23 25 24 23 23 25 28 28 30 31 32 30 33 35 34 35 34 34 34 32 32 34 36 37 37 36 35 34 33 32 34 36 37 34 33 34 33 33 31 28 25 25 28 29 29 30
18 21 24 26 29 30 30 30 30 33 33 33 36 36 36 37 38 39 39 39 39 38 38 36 35 34 35 35 37 37 35 35 34 34 34 34 35 36 35 35 35 34 31 28 25 30 31 31 31
23 25 26 28 29 31 33 35 35 36 37 38 39 40 41 42 43 43 44 43 43 44 43 42 40 38 37 37 36 35 37 37 37 37 36 35 34 37 37 37 38 37 35 33 29 30 33 33 32
26 27 27 28 30 31 34 37 38 41 41 43 44 44 44 46 47 48 49 49 49 49 48 47 46 45 43 42 40 40 38 38 38 38 39 37 36 38 39 40 39 39 39 37 34 32 34 35 34
30 31 32 32 34 35 38 39 41 43 45 46 48 50 50 50 51 52 53 53 52 53 53 52 51 49 49 48 46 44 43 44 43 39 40 40 41 41 42 41 42 41 39 40 39 36 35 35 37
32 34 36 38 39 42 44 45 45 47 48 49 51 52 54 56 56 56 57 58 57 57 56 57 56 55 52 52 51 50 49 48 46 44 43 42 42 49 47 42 42 44 44 43 43 42 38 36 38
38 40 42 44 45 46 48 49 51 51 52 52 53 54 55 57 59 61 62 61 61 62 61 61 60 60 59 55 54 54 54 53 51 47 46 45 47 47 46 39 45 44 44 46 46 44 41 39 38
40 42 44 46 48 50 51 52 55 56 57 58 58 57 57 58 59 61 64 66 67 66 66 65 64 64 63 63 59 57 57 57 55 54 51 48 45 45 41 44 43 43 43 46 49 47 44 43 41
44 46 48 49 50 51 53 55 55 56 57 60 62 62 61 60 59 60 62 65 69 71 71 70 69 68 68 66 65 64 61 60 59 58 57 53 48 47 48 50 48 48 49 50 47 49 46 45 44
45 46 48 48 50 51 53 56 55 57 59 61 62 62 63 63 62 62 62 63 65 69 73 74 73 72 72 71 70 68 68 65 63 62 61 59 55 53 48 40 51 51 52 54 50 46 47 50 47
42 45 46 46 49 52 53 56 55 57 58 60 63 65 66 67 67 67 67 67 66 68 70 73 75 75 75 75 74 73 72 72 69 68 66 64 62 61 58 57 50 52 51 45 55 57 46 49 47
48 49 50 49 52 52 54 56 57 59 62 64 66 68 70 70 71 72 72 73 73 73 73 74 76 77 77 77 78 77 76 76 75 73 72 70 69 68 66 63 62 61 51 46 42 48 52 51 47
51 55 55 55 55 56 57 58 59 61 63 65 68 70 72 73 74 77 77 77 78 78 79 78 79 80 81 81 80 81 81 80 78 78 76 75 74 73 72 70 66 64 59 54 52 45 41 52 48
58 60 62 63 64 62 63 64 65 67 68 68 69 71 72 74 77 79 81 82 83 84 84 84 84 83 83 85 85 84 84 85 84 81 81 79 78 77 76 73 71 70 64 59 56 49 48 50 49
61 64 65 65 66 66 69 72 73 75 76 76 76 74 71 70 72 74 77 81 84 87 88 88 89 88 88 87 88 90 90 88 88 87 84 84 83 82 81 78 76 68 70 64 60 57 52 49 49
64 66 66 67 69 72 73 79 80 83 84 81 80 79 78 76 75 73 71 70 74 79 84 90 92 92 91 91 91 91 94 94 93 92 90 87 86 86 85 85 81 78 70 71 66 64 60 56 51
67 68 68 71 74 77 80 82 86 75 75 75 71 66 63 60 59 58 60 63 66 68 70 74 83 91 94 93 93 94 95 96 97 97 95 93 90 89 89 89 88 85 79 73 72 71 68 64 59
71 71 72 76 79 81 82 79 77 67 63 56 47 47 46 47 49 51 53 53 54 57 60 61 65 73 82 90 96 97 98 97 99 100 99 98 96 94 92 92 92 90 87 77 73 71 71 69 66
72 75 79 82 82 80 75 71 60 51 47 42 39 41 42 43 43 44 44 43 44 45 48 52 53 55 62 70 83 91 97 99 100 100 103 103 102 99 97 95 94 93 91 88 80 73 74 74 71
75 78 80 78 78 74 64 52 43 39 39 39 41 40 39 39 40 41 41 40 39 36 39 44 44 42 46 52 59 68 85 96 99 101 102 105 105 105 102 100 97 96 95 93 89 78 75 77 76
80 81 80 78 74 67 59 45 38 37 40 41 41 39 38 40 40 39 40 41 40 38 35 36 42 39 39 42 45 51 58 71 90 96 101 104 108 107 106 105 103 100 98 97 94 91 78 75 76
81 81 75 69 58 53 47 37 37 39 41 42 38 38 40 39 38 38 39 40 42 41 39 36 36 42 39 36 38 39 44 45 58 77 89 99 106 109 108 107 106 104 101 98 98 95 91 84 76
78 73 63 54 46 42 43 40 39 41 40 38 38 39 40 40 39 37 36 36 38 40 41 37 35 38 41 40 37 31 30 38 47 50 64 80 96 106 109 109 107 107 104 101 99 99 96 91 88
72 61 49 44 40 37 39 38 39 39 40 40 40 38 38 38 39 38 36 34 35 35 35 36 34 34 40 38 36 33 30 27 35 42 44 53 68 94 104 109 108 107 107 104 102 101 100 97 89
Wind_Direction
31 354 304 283 277 277 272 264 259 262 256 249 248 254 259 263 265 262 263 256 250 245 242 241 241 240 240 236 234 234 235 237 236 234 232 234 238 237 238 236 233 230 227 228 218 212 214 202 190
56 43 38 14 339 311 292 273 267 262 262 260 259 256 253 252 254 256 261 258 252 250 244 239 240 241 241 240 237 237 236 238 236 237 238 237 236 235 236 236 236 233 228 222 219 211 207 200 193
306 317 316 298 283 283 290 292 284 275 269 264 263 263 261 259 255 250 252 255 254 252 252 247 242 243 243 244 240 239 239 238 237 235 236 237 237 236 239 237 234 235 230 224 217 210 205 204 201
288 277 273 269 262 263 265 263 260 257 260 265 271 274 267 259 255 253 251 248 249 250 249 250 248 245 245 243 245 244 240 240 239 237 236 236 236 237 238 239 238 235 230 223 218 213 208 208 209
267 267 270 267 262 260 260 260 262 260 262 263 262 261 260 262 263 259 254 249 245 243 244 244 244 242 240 239 237 239 241 239 239 239 238 238 238 237 237 236 237 240 237 224 219 217 214 212 214
278 273 274 268 263 259 258 257 257 260 258 257 260 262 262 262 262 262 263 267 267 261 254 252 248 243 239 239 238 236 236 236 235 236 238 237 237 237 238 237 237 237 239 236 221 220 217 216 216
274 276 280 278 274 268 267 266 264 259 257 258 258 258 263 262 261 260 260 259 260 262 263 261 257 254 255 249 244 241 239 239 238 234 234 235 235 236 236 236 237 237 235 235 230 221 220 218 217
290 286 281 276 273 273 270 267 267 266 263 262 259 259 260 258 259 261 261 262 262 262 263 261 259 260 258 256 257 251 246 242 240 239 236 236 235 236 235 235 236 235 236 234 231 227 225 220 220
289 288 280 277 274 273 271 271 270 268 265 261 259 259 259 260 259 259 258 258 258 258 259 261 261 258 256 257 259 259 256 249 243 243 242 238 235 237 236 232 233 234 233 233 230 227 225 225 222
289 284 282 280 277 274 272 270 271 270 271 270 267 261 258 258 258 258 257 256 256 256 255 255 256 257 257 256 256 256 256 255 250 245 243 242 240 235 233 234 231 231 232 231 231 228 224 225 224
284 285 283 280 278 276 273 273 272 271 269 269 269 268 265 260 259 259 259 257 255 254 254 254 254 253 253 255 254 255 256 256 253 245 244 242 241 239 233 229 231 232 232 232 230 230 229 224 224
288 288 287 287 286 285 283 279 276 274 272 270 269 267 268 268 264 260 257 258 257 255 253 251 251 252 251 250 252 252 253 255 256 256 241 240 238 241 236 231 227 230 231 230 232 229 228 228 225
294 293 292 290 288 287 285 283 281 279 277 275 273 269 266 265 266 267 265 262 259 257 255 253 250 248 250 250 249 250 250 250 253 253 257 242 235 254 232 235 241 228 232 232 231 231 227 228 228
298 297 297 295 295 293 290 288 286 286 284 282 279 275 270 266 264 261 261 263 261 258 256 254 251 249 246 246 247 247 248 249 247 250 251 257 242 236 244 246 245 237 235 236 233 230 228 228 227
302 301 300 300 297 295 293 290 288 286 283 280 278 276 275 272 268 264 260 258 258 259 258 254 252 249 247 244 243 244 244 245 246 244 247 247 250 247 237 243 238 242 241 239 239 237 233 232 229
303 302 300 299 298 295 291 289 287 285 282 280 278 276 274 273 271 268 265 260 257 255 255 255 252 250 248 246 243 241 242 242 242 242 242 244 244 246 247 238 240 239 239 242 242 237 235 233 232
303 302 302 300 295 292 290 289 287 284 282 280 278 276 275 273 271 269 267 263 260 257 254 253 252 251 248 247 245 241 240 239 239 239 239 239 240 241 244 243 244 240 234 232 246 238 229 231 232
317 314 312 307 306 297 293 292 290 287 284 282 281 279 277 275 273 271 268 266 264 260 255 253 251 250 248 246 245 243 240 238 238 237 238 237 236 238 240 242 246 253 251 250 247 228 234 233 232
317 315 312 308 304 300 296 293 290 287 284 281 279 277 275 274 273 271 269 268 265 262 260 255 251 249 248 247 244 244 242 240 237 236 235 236 236 235 237 239 241 243 244 242 240 233 236 223 227
315 314 312 309 306 303 301 297 295 293 289 285 281 278 276 274 272 270 268 266 265 263 261 259 255 251 247 246 246 244 242 240 239 237 235 234 235 236 236 235 238 240 240 241 242 239 233 231 236
315 314 310 308 307 304 303 301 301 298 296 293 291 287 282 275 271 268 266 264 263 261 260 258 257 254 251 246 243 243 242 240 239 237 236 234 233 234 235 234 234 238 238 239 239 242 240 235 234
315 314 313 310 308 307 305 303 301 300 298 295 293 291 289 287 285 282 276 270 265 262 260 258 255 254 253 249 246 242 240 240 239 238 236 235 233 231 232 234 234 233 235 236 235 236 238 238 235
317 315 314 311 309 307 305 303 301 300 296 295 293 291 288 286 283 281 279 277 275 271 265 259 256 255 252 250 248 244 241 238 238 237 236 235 233 232 230 232 233 233 231 234 234 235 237 238 237
318 315 312 310 308 308 307 305 302 300 297 294 291 287 287 286 286 285 283 281 278 274 271 267 262 254 251 251 248 246 243 240 237 236 236 235 234 233 231 230 232 231 232 228 233 233 235 237 237
318 315 314 312 312 308 307 303 305 301 295 294 292 293 293 291 290 287 283 282 283 281 276 270 264 258 255 250 247 245 243 241 238 235 235 234 234 232 233 231 230 231 230 231 229 233 233 235 236
316 316 314 313 311 310 309 308 306 299 296 300 302 300 296 295 296 293 287 282 281 285 283 272 264 262 256 251 249 247 241 240 238 237 233 233 233 233 231 232 231 230 230 229 229 227 233 235 236
318 316 316 314 310 309 311 312 305 307 306 305 306 305 301 300 300 297 289 284 284 287 292 285 261 256 256 252 250 249 248 242 239 237 234 231 231 231 232 231 232 230 230 229 229 228 227 232 236
318 318 317 316 313 311 313 312 311 310 309 310 310 305 305 306 303 297 293 286 281 282 288 289 280 254 246 245 241 244 249 244 242 240 238 233 230 229 230 231 231 231 230 229 229 228 228 229 231
322 320 317 314 310 312 313 316 315 314 314 315 312 312 312 309 305 299 295 291 285 279 278 285 286 265 248 242 247 239 250 246 236 240 240 237 231 229 228 228 230 230 230 229 229 229 228 228 232
322 320 317 313 315 314 311 317 318 314 318 316 314 319 321 317 313 308 302 297 293 287 278 278 283 288 243 244 249 243 245 251 241 237 240 241 237 230 228 226 226 230 230 230 229 229 228 226 229